Terug naar catalogus

FENGYUN 1C DEB

ActiefPO
NORAD 37077·DEBRIS·🇨🇳 China

Gelanceerd May 10, 1999 vanaf Taiyuan Satellite Launch Center

Loading…

Volgende Passages (komende 24 uur)

TLE

VersSource: Space-Track

Epoch: Sep 14, 2026, 05:32 UTC

1 37077U 99025EFM 26257.23098706  .00000741  00000-0  23039-3 0  9998
2 37077  99.0211 352.8110 0094482 233.3489 125.8985 14.41800660889246

Volg FENGYUN 1C DEB in realtime met AllMySat

Download on the App Store